Vertical_Velocity
3 -2 4 2 -0 5 6 13 3 -10 -12 1 8 9 17 11 8 7 3 -0 -2 0 -2 -1 0 1 0 1 0 -0 0 3 1 -1 0 -0 1 -3 0 -1 -3 3 3 6 1 3 -3 0 -2
2 0 4 2 1 3 3 -2 -5 2 -6 6 2 0 3 7 -3 1 4 3 -3 -2 -1 1 -0 -0 1 0 -0 -0 1 1 1 2 -2 -3 -2 -2 2 -2 -0 0 4 5 4 0 -3 -0 -3
-1 2 2 1 1 3 -4 -3 0 -4 1 -5 -3 -3 -6 -1 -8 -2 2 -4 -0 3 1 2 4 -1 -2 -3 1 -0 1 0 1 -1 -0 -2 -3 1 -1 -1 -0 1 1 1 2 1 -4 2 -1
-2 1 0 -2 1 -5 -1 -2 1 0 3 3 0 2 -4 6 2 1 -0 1 1 2 0 1 3 0 -1 1 3 1 -0 -2 -1 -0 0 -0 1 1 3 -1 1 2 -0 3 -1 3 2 -1 3
-0 0 1 2 -1 -2 -2 -1 3 1 9 13 -2 -2 -3 2 0 3 6 2 2 -2 1 4 4 -0 1 5 1 -1 -2 -2 1 -2 -2 1 1 1 4 -0 3 -1 -4 -2 4 -2 2 -2 1
0 2 3 5 -0 2 3 3 -0 -1 2 8 2 0 -4 7 -2 2 -5 -1 -1 4 1 4 -1 26 21 -2 4 1 -2 0 1 -1 4 2 5 0 -2 -2 3 -2 -4 -4 -2 3 -1 -3 -2
1 4 3 4 2 2 4 1 1 5 6 -2 0 -1 -1 -0 -1 1 -7 4 1 -2 3 -1 7 1 10 1 6 0 0 1 -0 -1 9 2 1 0 -0 3 -1 -2 0 -1 -1 -1 -3 -1 -1
-0 1 1 2 3 2 2 6 3 -3 -1 3 -0 1 -4 0 2 -4 -2 -3 -3 1 7 3 78 -6 4 5 -3 1 5 -0 8 3 4 -2 -0 2 -2 -2 -0 -1 4 -2 0 -5 0 0 4
1 3 4 6 3 1 -2 2 -0 1 1 -0 3 -5 -2 -3 -1 -2 -2 0 1 1 8 2 33 25 4 3 11 7 16 11 4 -3 -1 2 -0 -0 3 -4 2 -3 -0 0 -5 -1 1 3 2
3 4 4 6 3 4 -2 2 5 -0 2 0 1 -2 -2 -1 -0 1 -1 -2 2 3 4 8 28 12 7 0 16 15 5 9 4 -3 3 1 -5 -2 1 -2 0 -2 2 0 1 1 1 -1 -1
5 3 1 1 1 0 -2 1 -0 -1 -2 -3 -5 -2 -1 -2 -0 -1 2 -2 1 5 -1 8 24 22 18 7 2 8 7 4 -4 -8 -6 -1 1 1 1 -2 -1 1 1 -3 2 -2 0 -2 -2
4 1 3 -1 -3 -1 0 -0 -2 4 -2 -5 0 -3 -2 -2 3 -6 -2 2 7 0 -2 16 -2 16 12 10 -1 -10 -8 -1 -7 3 4 3 -0 -1 -0 0 0 -5 -0 -3 -1 1 -3 -0 3
-11 0 1 0 -1 2 -1 -0 -1 -3 2 -6 -2 -2 0 -0 3 7 6 0 4 0 -9 -3 -2 -14 -1 -9 -4 0 4 -1 -5 1 2 -1 -2 2 -2 -1 -5 -3 0 0 -2 0 1 -0 -0
-0 4 -1 -5 -1 2 1 -1 3 3 -2 1 1 -4 -2 4 -2 -2 1 -5 -3 -3 0 -3 -3 -1 2 0 -1 -1 -1 2 2 -3 1 0 0 -0 5 0 -1 -4 -5 2 1 1 -3 -2 -1
-0 1 -0 7 6 -3 -2 -2 -1 2 -7 -2 -3 -4 -1 -4 2 -2 -4 -3 -1 3 5 0 2 2 1 2 1 -0 3 0 -3 -3 0 -0 1 4 -2 -6 -2 1 4 1 -1 1 -4 1 -4
0 5 1 1 3 -1 -4 2 2 3 2 -1 -1 9 5 0 0 2 1 -1 -1 3 3 3 1 -1 2 2 3 0 1 -0 -3 -0 -1 3 -2 -3 3 -3 3 3 -1 -0 -0 -1 0 -2 -5
3 5 2 -2 4 2 3 1 6 2 3 2 -3 3 3 2 4 1 2 1 -2 2 2 1 -0 -1 3 -1 3 -2 1 -2 2 0 -2 4 1 -1 -0 -2 -5 -1 5 -0 -6 -4 0 -2 -2
4 2 -1 0 -5 -1 -3 2 4 0 1 -1 0 1 -1 3 0 1 1 -2 1 1 -1 -4 -5 -2 3 3 -1 -0 2 0 -4 1 -1 1 -1 -3 -4 -0 -0 -0 -2 -7 -5 -0 -1 -2 -1
2 1 4 -0 -3 1 -2 -1 -3 -2 0 1 -3 -0 -2 -2 0 1 2 -5 -5 2 4 3 -1 -1 1 -0 -1 -4 2 -3 2 -0 -2 -2 -3 -1 -0 -3 -2 -5 1 -2 1 -1 -2 -2 -3
-2 -2 -1 2 2 -1 2 -7 1 1 -3 5 5 -6 -2 1 2 2 8 2 1 4 4 2 -3 -1 -1 2 3 5 3 2 1 -2 0 -1 -1 -3 -3 -4 -3 2 1 1 -1 -3 -2 -5 -4
-1 3 1 1 4 2 -0 0 -1 3 3 2 4 7 5 2 -1 0 2 0 3 -1 -2 -2 1 1 -0 4 -1 -2 4 -1 1 -2 -3 -3 -1 1 1 1 4 2 -0 -0 -3 -1 -0 -1 2
3 -1 -3 1 0 -2 -0 2 -2 -2 3 5 5 1 -1 6 1 -3 -3 1 -1 -2 -5 -3 0 0 -0 -4 -0 -3 -1 0 -4 -1 -0 -2 -2 -1 0 2 -0 -2 -3 -3 -2 -0 -0 1 -0
-5 -1 -2 -5 -1 -2 3 3 4 -2 -1 -1 -1 1 -0 -2 4 2 0 -3 -3 -6 -2 2 3 -1 2 -1 -1 -1 -3 -3 1 -2 -0 -1 0 0 1 1 -1 -1 -1 1 7 -2 -1 0 -0
-1 -0 0 1 1 1 -1 -2 3 8 9 3 3 5 0 1 1 1 -1 -2 -4 -4 1 5 43 -21 -1 -3 -1 1 -1 4 5 -0 1 1 -1 2 -1 -2 1 1 -4 6 -1 -0 1 -0 0
-1 -6 -3 -3 -4 -2 -0 -4 0 -0 -2 -2 0 1 2 4 -0 -0 -1 1 -4 -2 1 -2 24 17 0 3 5 3 0 -1 -0 1 2 2 -0 0 0 -1 -1 -0 1 1 1 -1 -0 -0 2
3 -0 -5 -3 -2 -3 -6 -6 5 -0 -1 2 2 4 1 1 3 2 -0 -3 2 -2 -2 -4 8 20 -0 -3 2 4 2 2 -1 2 0 -1 -2 -1 -2 0 4 2 -1 1 -1 -1 -2 2 2
2 -2 -1 -4 -1 -3 0 3 5 -4 -1 -3 1 1 -0 2 -0 2 -1 -1 1 -2 2 -5 1 7 2 5 -3 -0 -1 -2 0 3 1 -1 -2 1 2 3 1 1 -0 1 1 0 -1 0 -0
-2 0 -0 -3 -7 -6 -1 1 -1 -3 -2 -1 -2 1 1 1 2 0 0 -0 -0 -2 -2 4 2 -2 2 2 2 -4 -3 2 4 -2 1 3 1 3 1 -0 1 -0 -0 0 -1 -1 -2 -3 -2
0 -1 -3 -1 -1 -8 -3 1 5 -0 -2 -2 -1 1 3 1 -0 -1 -2 -3 -3 -6 -0 -2 3 2 -3 -4 -4 -1 3 6 -1 -0 -1 3 1 0 0 1 2 1 0 1 -3 -5 -5 -3 -3
-3 -2 3 -2 1 -5 -7 2 -1 4 2 -1 -4 -1 1 -1 -3 0 -1 -1 -1 -1 -1 0 -6 -3 1 1 1 4 0 0 0 2 -0 1 -1 -1 -1 -1 -1 -1 -3 -6 -5 -5 -3 -2 -1
Height
5769 5770 5772 5775 5781 5781 5783 5787 5790 5795 5802 5805 5806 5809 5810 5812 5814 5817 5817 5819 5821 5822 5825 5826 5825 5826 5827 5828 5830 5831 5832 5832 5832 5832 5833 5831 5833 5831 5833 5834 5835 5836 5839 5840 5840 5840 5837 5836 5836
5764 5765 5767 5770 5774 5777 5780 5784 5787 5792 5797 5800 5801 5803 5805 5807 5810 5812 5813 5813 5815 5818 5820 5821 5821 5821 5822 5823 5824 5826 5827 5828 5827 5828 5828 5828 5829 5829 5829 5829 5831 5834 5835 5836 5837 5835 5836 5834 5833
5760 5760 5764 5766 5769 5774 5779 5781 5783 5788 5791 5794 5798 5799 5801 5803 5806 5806 5808 5808 5810 5812 5813 5815 5816 5817 5818 5819 5821 5821 5822 5822 5823 5823 5824 5824 5827 5826 5826 5827 5828 5830 5833 5833 5833 5834 5833 5832 5831
5757 5758 5761 5763 5767 5772 5776 5779 5780 5783 5787 5789 5792 5796 5798 5800 5803 5803 5804 5804 5805 5806 5807 5809 5809 5810 5811 5812 5815 5816 5816 5817 5818 5819 5820 5821 5822 5822 5824 5825 5827 5828 5830 5829 5831 5831 5830 5830 5828
5754 5756 5758 5762 5765 5769 5773 5775 5778 5779 5782 5784 5787 5791 5795 5797 5798 5799 5799 5799 5799 5801 5802 5803 5804 5804 5804 5804 5808 5809 5811 5811 5813 5814 5816 5817 5818 5818 5820 5822 5824 5823 5823 5827 5828 5826 5825 5825 5824
5753 5755 5757 5760 5764 5767 5770 5772 5774 5775 5778 5781 5784 5787 5791 5792 5793 5794 5793 5794 5795 5797 5797 5797 5799 5796 5795 5797 5802 5804 5804 5806 5808 5809 5811 5813 5815 5816 5818 5820 5821 5821 5822 5823 5824 5823 5822 5821 5821
5752 5754 5756 5759 5762 5764 5767 5769 5771 5773 5775 5779 5781 5785 5787 5787 5788 5788 5790 5790 5793 5793 5793 5791 5789 5793 5788 5791 5795 5798 5799 5802 5803 5804 5808 5811 5812 5816 5819 5820 5820 5820 5821 5821 5821 5821 5820 5819 5817
5751 5753 5756 5758 5761 5765 5766 5768 5771 5773 5776 5778 5780 5780 5781 5782 5783 5785 5786 5786 5789 5791 5789 5791 5783 5774 5779 5786 5789 5792 5794 5798 5801 5802 5805 5808 5813 5816 5816 5818 5819 5819 5818 5817 5815 5815 5816 5816 5814
5752 5755 5756 5759 5762 5763 5765 5768 5770 5773 5775 5776 5775 5775 5775 5779 5780 5780 5780 5782 5783 5783 5784 5781 5778 5771 5777 5782 5784 5786 5789 5794 5798 5800 5805 5809 5812 5814 5815 5816 5817 5816 5815 5815 5813 5812 5811 5811 5810
5752 5754 5756 5759 5760 5762 5764 5767 5768 5771 5771 5772 5772 5772 5772 5774 5775 5773 5775 5776 5777 5777 5776 5774 5774 5776 5777 5781 5784 5782 5787 5792 5796 5799 5803 5807 5811 5813 5813 5813 5815 5813 5811 5811 5810 5810 5808 5808 5807
5751 5752 5754 5757 5759 5762 5764 5765 5766 5768 5768 5768 5769 5769 5768 5769 5768 5767 5770 5770 5771 5770 5768 5769 5773 5776 5778 5781 5782 5785 5788 5791 5796 5801 5804 5807 5809 5810 5810 5810 5809 5809 5809 5808 5809 5807 5804 5804 5802
5752 5752 5757 5757 5760 5763 5763 5764 5765 5766 5766 5766 5764 5763 5763 5763 5763 5763 5764 5764 5767 5767 5766 5767 5768 5770 5775 5779 5783 5786 5789 5793 5798 5800 5804 5805 5806 5806 5807 5806 5806 5805 5806 5805 5803 5802 5802 5799 5797
5754 5757 5757 5758 5760 5764 5763 5763 5764 5764 5763 5762 5760 5758 5759 5759 5758 5759 5760 5762 5763 5767 5769 5768 5770 5776 5780 5780 5784 5787 5789 5796 5799 5800 5799 5804 5803 5803 5803 5803 5803 5803 5800 5800 5799 5798 5797 5793 5791
5756 5758 5758 5761 5763 5764 5764 5763 5762 5761 5760 5760 5758 5757 5755 5753 5754 5757 5760 5762 5766 5766 5769 5772 5775 5779 5782 5784 5786 5790 5790 5795 5797 5797 5796 5801 5800 5799 5799 5799 5800 5799 5798 5795 5794 5793 5791 5787 5784
5757 5759 5760 5761 5762 5763 5763 5762 5759 5760 5760 5758 5758 5758 5758 5759 5762 5765 5763 5763 5766 5769 5771 5774 5776 5779 5783 5785 5785 5788 5789 5792 5794 5793 5795 5796 5795 5795 5797 5797 5795 5793 5792 5790 5789 5787 5784 5779 5775
5758 5759 5761 5760 5761 5762 5763 5763 5762 5762 5762 5761 5762 5763 5762 5764 5766 5767 5768 5769 5770 5774 5777 5778 5781 5783 5785 5785 5786 5789 5790 5790 5790 5790 5792 5794 5795 5796 5794 5791 5789 5787 5787 5785 5783 5779 5775 5771 5767
5758 5758 5758 5760 5761 5761 5763 5762 5761 5762 5763 5763 5762 5765 5765 5767 5768 5770 5771 5772 5774 5776 5779 5779 5780 5782 5783 5785 5784 5786 5787 5786 5787 5790 5791 5793 5793 5790 5788 5786 5786 5784 5782 5780 5776 5771 5767 5762 5758
5756 5759 5759 5759 5760 5760 5761 5761 5761 5762 5762 5763 5763 5763 5767 5767 5768 5769 5771 5773 5775 5776 5777 5779 5779 5780 5782 5784 5784 5784 5785 5785 5787 5787 5789 5787 5786 5785 5783 5782 5780 5778 5777 5772 5767 5762 5757 5751 5745
5754 5757 5759 5760 5762 5761 5762 5762 5762 5762 5763 5765 5764 5765 5766 5767 5769 5770 5771 5774 5776 5776 5777 5778 5779 5781 5782 5784 5783 5781 5783 5784 5783 5783 5783 5782 5782 5781 5779 5777 5776 5773 5768 5762 5756 5751 5744 5739 5734
5755 5757 5759 5759 5760 5762 5762 5763 5762 5763 5763 5766 5767 5767 5769 5769 5769 5771 5772 5772 5773 5773 5774 5775 5776 5776 5776 5777 5777 5778 5778 5779 5780 5780 5780 5779 5777 5776 5775 5773 5768 5762 5756 5751 5746 5740 5735 5729 5723
5754 5756 5757 5759 5760 5760 5761 5762 5763 5764 5764 5764 5767 5768 5769 5770 5770 5770 5771 5772 5773 5773 5774 5774 5775 5775 5774 5774 5775 5777 5778 5777 5777 5777 5776 5774 5773 5770 5767 5762 5757 5753 5747 5741 5736 5729 5723 5718 5713
5754 5755 5756 5757 5759 5758 5759 5761 5762 5763 5765 5766 5767 5769 5769 5770 5771 5770 5770 5771 5771 5771 5772 5773 5774 5774 5774 5775 5775 5776 5775 5774 5772 5771 5769 5767 5764 5761 5757 5753 5748 5741 5734 5729 5723 5718 5713 5707 5701
5753 5754 5756 5757 5757 5759 5759 5760 5760 5761 5763 5765 5766 5766 5766 5765 5767 5767 5767 5766 5768 5770 5772 5771 5768 5770 5770 5772 5772 5771 5770 5767 5765 5763 5761 5757 5754 5751 5746 5741 5735 5729 5725 5720 5715 5708 5701 5695 5689
5753 5754 5755 5756 5756 5757 5757 5759 5760 5760 5760 5761 5760 5762 5762 5763 5764 5765 5765 5765 5764 5766 5767 5764 5759 5763 5764 5766 5766 5764 5763 5761 5759 5757 5754 5750 5746 5741 5737 5731 5726 5721 5717 5711 5705 5697 5690 5684 5678
5752 5753 5753 5754 5754 5755 5754 5755 5758 5758 5757 5758 5758 5758 5760 5761 5761 5761 5761 5761 5761 5763 5763 5762 5759 5756 5758 5759 5757 5757 5756 5754 5752 5749 5746 5741 5736 5732 5727 5722 5718 5712 5706 5700 5693 5685 5679 5672 5665
5749 5750 5751 5751 5752 5752 5752 5753 5756 5753 5753 5755 5757 5758 5757 5758 5759 5759 5758 5758 5759 5759 5759 5758 5758 5754 5756 5754 5754 5752 5750 5747 5744 5740 5736 5731 5727 5722 5718 5714 5708 5701 5694 5687 5680 5673 5666 5659 5651
5746 5747 5749 5748 5748 5749 5749 5750 5752 5750 5750 5752 5753 5754 5753 5753 5753 5755 5754 5755 5756 5757 5756 5755 5754 5753 5751 5750 5748 5745 5742 5740 5736 5732 5728 5723 5718 5714 5708 5702 5695 5688 5682 5674 5667 5660 5653 5646 5638
5741 5744 5745 5745 5744 5744 5745 5746 5747 5748 5748 5749 5749 5751 5751 5751 5750 5750 5750 5751 5752 5752 5751 5750 5750 5747 5744 5743 5741 5739 5735 5731 5727 5723 5719 5715 5710 5703 5696 5689 5683 5676 5669 5661 5654 5648 5640 5632 5623
5738 5738 5740 5741 5740 5738 5741 5742 5744 5744 5744 5744 5746 5747 5748 5748 5747 5746 5746 5746 5746 5745 5745 5744 5743 5740 5738 5736 5734 5730 5726 5722 5720 5715 5710 5704 5697 5690 5684 5676 5669 5663 5657 5650 5642 5634 5626 5617 5609
5733 5733 5736 5735 5735 5734 5735 5738 5739 5740 5740 5740 5740 5741 5743 5743 5743 5744 5743 5742 5741 5740 5739 5737 5735 5733 5731 5728 5725 5722 5718 5717 5712 5706 5699 5692 5685 5678 5671 5664 5658 5653 5646 5637 5629 5620 5612 5603 5594